When you browse on this site, cookies collect data to enhance your experience and personalize the content and advertising you see.
Visit our Privacy Policy to learn more. By continuing to use the site, you agree to this use of cookies and data.
  • In Switzerland
  • List of Countries
  • For 7 days
  • Water Temperature
  • Satellite Maps
  • Weather Map
  • Weather Widgets
  • user-avatar
    Login

    Hourly Weather Coburg

    Today, 19 July, Friday

    Time Temperature Precipitation Wind Pressure Humidity
    00:00 +18°C° 0.6 mm 1 mps 732 mmHg 82%
    01:00 +18°C° 0 mm 1 mps 733 mmHg 89%
    02:00 +16°C° 0.4 mm 1 mps 733 mmHg 91%
    03:00 +16°C° 0.4 mm 1 mps 733 mmHg 93%
    04:00 +15°C° 0.4 mm 0 mps 733 mmHg 94%
    05:00 +15°C° 0 mm 0 mps 733 mmHg 93%
    06:00 +16°C° 0 mm 0 mps 733 mmHg 92%
    07:00 +16°C° 0 mm 0 mps 733 mmHg 92%
    08:00 +16°C° 0.7 mm 0 mps 734 mmHg 93%
    09:00 +18°C° 0.7 mm 1 mps 734 mmHg 94%
    10:00 +18°C° 0.7 mm 1 mps 734 mmHg 96%
    11:00 +20°C° 0.2 mm 1 mps 734 mmHg 90%
    12:00 +20°C° 0.2 mm 2 mps 734 mmHg 84%
    13:00 +21°C° 0.2 mm 2 mps 734 mmHg 79%
    14:00 +23°C° 0.3 mm 2 mps 734 mmHg 77%
    15:00 +22°C° 0.3 mm 3 mps 734 mmHg 76%
    16:00 +24°C° 0.3 mm 3 mps 734 mmHg 74%
    17:00 +23°C° 0.3 mm 2 mps 734 mmHg 79%
    18:00 +22°C° 0.3 mm 1 mps 734 mmHg 83%
    19:00 +22°C° 0.3 mm 1 mps 734 mmHg 88%
    20:00 +20°C° 0 mm 1 mps 734 mmHg 90%
    21:00 +19°C° 0 mm 1 mps 734 mmHg 92%
    22:00 +16°C° 0 mm 0 mps 734 mmHg 94%
    23:00 +16°C° 0 mm 0 mps 734 mmHg 94%

    Tomorrow, 20 July, Saturday

    Time Temperature Precipitation Wind Pressure Humidity
    00:00 +15°C° 0 mm 0 mps 734 mmHg 95%
    01:00 +15°C° 0 mm 0 mps 734 mmHg 95%
    02:00 +15°C° 0 mm 0 mps 734 mmHg 95%
    03:00 +15°C° 0 mm 1 mps 734 mmHg 96%
    04:00 +15°C° 0 mm 1 mps 734 mmHg 96%
    05:00 +16°C° 0 mm 1 mps 734 mmHg 94%
    06:00 +18°C° 0 mm 1 mps 734 mmHg 91%
    07:00 +20°C° 0 mm 1 mps 734 mmHg 89%
    08:00 +21°C° 0 mm 2 mps 734 mmHg 80%
    09:00 +24°C° 0 mm 2 mps 734 mmHg 71%
    10:00 +26°C° 0 mm 3 mps 735 mmHg 62%
    11:00 +27°C° 0 mm 3 mps 734 mmHg 58%
    12:00 +28°C° 0 mm 3 mps 734 mmHg 55%
    13:00 +29°C° 0 mm 3 mps 734 mmHg 51%
    14:00 +29°C° 0 mm 4 mps 734 mmHg 51%
    15:00 +29°C° 0 mm 4 mps 734 mmHg 52%
    16:00 +29°C° 0 mm 4 mps 733 mmHg 52%
    17:00 +28°C° 0.2 mm 3 mps 733 mmHg 59%
    18:00 +27°C° 0.2 mm 2 mps 733 mmHg 65%
    19:00 +26°C° 0.2 mm 1 mps 733 mmHg 72%
    20:00 +24°C° 1.7 mm 1 mps 734 mmHg 78%
    21:00 +22°C° 1.7 mm 1 mps 734 mmHg 85%
    22:00 +21°C° 1.7 mm 1 mps 734 mmHg 92%
    23:00 +20°C° 0.5 mm 1 mps 734 mmHg 93%

    Day after tomorrow, 21 July, Sunday

    Time Temperature Precipitation Wind Pressure Humidity
    00:00 +18°C° 0.5 mm 0 mps 734 mmHg 93%
    01:00 +17°C° 0.5 mm 0 mps 734 mmHg 93%
    02:00 +17°C° 0 mm 0 mps 734 mmHg 94%
    03:00 +19°C° 0 mm 1 mps 735 mmHg 95%
    04:00 +18°C° 0 mm 1 mps 735 mmHg 95%
    05:00 +19°C° 0 mm 1 mps 735 mmHg 94%
    06:00 +20°C° 0 mm 1 mps 735 mmHg 93%
    07:00 +20°C° 0 mm 2 mps 736 mmHg 92%
    08:00 +21°C° 0.5 mm 2 mps 736 mmHg 86%
    09:00 +22°C° 0.5 mm 3 mps 737 mmHg 79%
    10:00 +23°C° 0.5 mm 4 mps 737 mmHg 73%
    11:00 +25°C° 0.1 mm 4 mps 737 mmHg 66%
    12:00 +26°C° 0.1 mm 4 mps 738 mmHg 58%
    13:00 +27°C° 0.1 mm 5 mps 738 mmHg 51%
    14:00 +27°C° 0 mm 4 mps 738 mmHg 49%
    15:00 +27°C° 0 mm 4 mps 738 mmHg 47%
    16:00 +27°C° 0 mm 4 mps 738 mmHg 45%
    17:00 +26°C° 0 mm 3 mps 738 mmHg 53%
    18:00 +25°C° 0 mm 2 mps 738 mmHg 60%
    19:00 +24°C° 0 mm 2 mps 738 mmHg 67%
    20:00 +22°C° 0 mm 1 mps 739 mmHg 73%
    21:00 +20°C° 0 mm 1 mps 739 mmHg 79%
    22:00 +17°C° 0 mm 0 mps 740 mmHg 85%
    23:00 +16°C° 0 mm 0 mps 740 mmHg 87%

    22 July, Monday

    Time Temperature Precipitation Wind Pressure Humidity
    00:00 +16°C° 0 mm 0 mps 740 mmHg 88%
    01:00 +15°C° 0 mm 0 mps 740 mmHg 90%
    02:00 +15°C° 0 mm 0 mps 740 mmHg 91%
    03:00 +15°C° 0 mm 0 mps 740 mmHg 92%
    04:00 +14°C° 0 mm 0 mps 740 mmHg 92%
    05:00 +16°C° 0 mm 0 mps 740 mmHg 88%
    06:00 +17°C° 0 mm 0 mps 741 mmHg 83%
    07:00 +19°C° 0 mm 0 mps 741 mmHg 78%
    08:00 +21°C° 0 mm 0 mps 741 mmHg 70%
    09:00 +24°C° 0 mm 1 mps 741 mmHg 62%
    10:00 +26°C° 0 mm 1 mps 742 mmHg 55%
    11:00 +27°C° 0 mm 1 mps 742 mmHg 51%
    12:00 +28°C° 0 mm 1 mps 741 mmHg 47%
    13:00 +29°C° 0 mm 1 mps 741 mmHg 43%
    14:00 +29°C° 0 mm 1 mps 741 mmHg 44%
    15:00 +29°C° 0 mm 2 mps 741 mmHg 45%
    16:00 +28°C° 0 mm 2 mps 741 mmHg 46%
    17:00 +27°C° 0 mm 1 mps 741 mmHg 53%
    18:00 +26°C° 0 mm 1 mps 741 mmHg 60%
    19:00 +24°C° 0 mm 1 mps 741 mmHg 68%
    20:00 +23°C° 0 mm 1 mps 741 mmHg 71%
    21:00 +22°C° 0 mm 1 mps 741 mmHg 75%
    22:00 +20°C° 0 mm 1 mps 741 mmHg 78%
    23:00 +19°C° 0 mm 1 mps 741 mmHg 80%

    23 July, Tuesday

    Time Temperature Precipitation Wind Pressure Humidity
    00:00 +19°C° 0 mm 1 mps 741 mmHg 81%
    01:00 +18°C° 0 mm 1 mps 741 mmHg 83%
    02:00 +18°C° 0 mm 1 mps 741 mmHg 83%
    03:00 +18°C° 0 mm 1 mps 740 mmHg 83%
    04:00 +18°C° 0 mm 1 mps 740 mmHg 83%
    05:00 +19°C° 0 mm 1 mps 740 mmHg 77%
    06:00 +21°C° 0 mm 1 mps 741 mmHg 72%
    07:00 +23°C° 0 mm 1 mps 741 mmHg 67%
    08:00 +25°C° 0 mm 1 mps 741 mmHg 60%
    09:00 +27°C° 0 mm 1 mps 741 mmHg 52%
    10:00 +29°C° 0 mm 2 mps 741 mmHg 45%
    11:00 +30°C° 0 mm 2 mps 740 mmHg 42%
    12:00 +31°C° 0 mm 1 mps 740 mmHg 39%
    13:00 +32°C° 0 mm 1 mps 740 mmHg 35%
    14:00 +32°C° 0 mm 1 mps 740 mmHg 36%
    15:00 +32°C° 0 mm 1 mps 739 mmHg 36%
    16:00 +32°C° 0 mm 2 mps 739 mmHg 37%
    17:00 +31°C° 0 mm 2 mps 739 mmHg 45%
    18:00 +29°C° 0 mm 2 mps 738 mmHg 52%
    19:00 +28°C° 0 mm 2 mps 738 mmHg 60%
    20:00 +26°C° 0 mm 2 mps 738 mmHg 65%
    21:00 +24°C° 0 mm 2 mps 738 mmHg 70%
    22:00 +23°C° 0 mm 2 mps 738 mmHg 74%
    23:00 +21°C° 0 mm 2 mps 738 mmHg 76%

    24 July, Wednesday

    Time Temperature Precipitation Wind Pressure Humidity
    00:00 +21°C° 0 mm 1 mps 738 mmHg 77%
    01:00 +21°C° 0 mm 1 mps 738 mmHg 79%
    02:00 +20°C° 0 mm 1 mps 738 mmHg 78%
    03:00 +20°C° 0 mm 1 mps 737 mmHg 78%
    04:00 +20°C° 0 mm 1 mps 737 mmHg 78%
    05:00 +21°C° 0 mm 1 mps 737 mmHg 73%
    06:00 +23°C° 0 mm 1 mps 738 mmHg 68%
    07:00 +22°C° 0 mm 0 mps 738 mmHg 64%
    08:00 +26°C° 0 mm 1 mps 738 mmHg 58%
    09:00 +28°C° 0 mm 1 mps 738 mmHg 51%
    10:00 +30°C° 0 mm 1 mps 738 mmHg 45%
    11:00 +31°C° 0 mm 1 mps 738 mmHg 42%
    12:00 +33°C° 0 mm 1 mps 738 mmHg 39%
    13:00 +34°C° 0 mm 1 mps 737 mmHg 36%
    14:00 +34°C° 0 mm 1 mps 737 mmHg 35%
    15:00 +34°C° 0 mm 1 mps 737 mmHg 35%
    16:00 +34°C° 0 mm 1 mps 737 mmHg 35%
    17:00 +33°C° 0 mm 1 mps 737 mmHg 42%
    18:00 +31°C° 0 mm 1 mps 737 mmHg 48%
    19:00 +30°C° 0 mm 1 mps 736 mmHg 55%
    20:00 +28°C° 0 mm 1 mps 737 mmHg 60%
    21:00 +26°C° 0 mm 1 mps 737 mmHg 65%
    22:00 +24°C° 0 mm 1 mps 737 mmHg 70%
    23:00 +23°C° 0 mm 1 mps 737 mmHg 70%
    Show more